Regional Weather Roundup
Issued by NWS San Angelo, TX

Home | Current Version | Previous Version | Text Only | Print | Product List | Glossary Off
Versions: 1 2 3 4 5 6 7 8 9 10 11 12 13 14 15 16 17 18 19 20 21 22 23 24 25 26 27 28 29 30 31 32 33 34 35 36 37 38 39 40 41 42 43 44 45 46 47 48 49 50

000
ASUS44 KSJT 031210
RWRSJT
WEST CENTRAL TEXAS REGIONAL WEATHER ROUNDUP
NATIONAL WEATHER SERVICE SAN ANGELO TX
600 AM CST TUE MAR 03 2015

NOTE: "FAIR" INDICATES FEW OR NO CLOUDS BELOW 12,000 FEET WITH NO
SIGNIFICANT WEATHER AND/OR OBSTRUCTIONS TO VISIBILITY.

TXZ049-054-064>066-071>073-076>078-098-099-113-114-127-128-139-140-
154-155-168>170-031300
...LOCATIONS ACROSS WEST CENTRAL TEXAS...

CITY           SKY/WX    TMP DP  RH WIND       PRES   REMARKS
SAN ANGELO     FOG       40  39  97 NE3       29.94F VSB 3/4
ABILENE        CLOUDY    43  41  93 VRB3      29.94R
DYESS AFB      CLOUDY    45  41  87 SW14      29.93R WCI  38
JUNCTION       CLOUDY    41  40  96 E5        29.98F WCI  38
SWEETWATER     CLOUDY    41  41 100 S13       29.96F VSB 3/4 WCI  34
BROWNWOOD      CLOUDY    39  39 100 S7        30.00F FOG     WCI  34
COLEMAN        CLOUDY    38  38 100 S7        29.99S FOG     WCI  33
SONORA         CLOUDY    45  45 100 S3        30.01F
OZONA          FOG       45  45 100 S9        29.97F VSB 1/4 WCI  40
BRADY          NOT AVBL
$$

TEXAS PANHANDLE/OKLAHOMA PANHANDLE

CITY           SKY/WX    TMP DP  RH WIND       PRES   REMARKS
AMARILLO       CLOUDY    37  34  89 SW16      29.85S WCI  28
BORGER         CLOUDY    42  35  76 SW18G26   29.79S WCI  34
CANADIAN       CLOUDY    40  36  85 SW8       29.81S WCI  35
DALHART        MOCLDY    36  33  89 SW12      29.80S WCI  28
DUMAS          PTSUNNY   36  33  91 SW17      29.79R WCI  25
GUYMON         NOT AVBL
HEREFORD       CLOUDY    37  35  93 SW13      29.87F WCI  29
PAMPA          CLOUDY    40  36  84 SW21      29.80S WCI  30
PERRYTON         N/A     37  34  87 SW17      29.78R WCI  28
$$

SOUTHERN PANHANDLE/SOUTH PLAINS/ROLLING PLAINS

CITY           SKY/WX    TMP DP  RH WIND       PRES   REMARKS
LUBBOCK        CLOUDY    37  37 100 SW10      29.88F FOG     WCI  30
SNYDER         FOG       37  37  99 SW8       29.94S VSB 1/2 WCI  31
CHILDRESS      MOCLDY    37  34  89 CALM      29.91R
SEMINOLE       FOG       39  39 100 S6        29.92R VSB 3/4 WCI  35
$$

PERMIAN BASIN

CITY           SKY/WX    TMP DP  RH WIND       PRES   REMARKS
MIDLAND        FOG       43  42  97 S10       29.91S VSB 1/2 WCI  37
ODESSA         FOG       42  41  96 S9        29.92S VSB 1/4 WCI  37
WINK           FOG       41  38  89 S6        29.91R VSB 3/4 WCI  37
$$

FAR WEST/SOUTHWEST MOUNTAINS/TRANS PECOS

CITY           SKY/WX    TMP DP  RH WIND       PRES   REMARKS
ALPINE         CLOUDY    51  36  56 W7        29.99S
DRYDEN           N/A     46  43  89 SW5       29.96S
EL PASO        CLOUDY    56  46  69 W7        29.88S
FORT STOCKTON  PTCLDY    34  34 100 W8        29.91S WCI  27
GUADALUPE PASS NOT AVBL
MARFA          CLOUDY    45  37  76 CALM      29.97S
PECOS          PTSUNNY   38  37  93 CALM      29.91F
$$

DALLAS/FORT WORTH METROPLEX

CITY           SKY/WX    TMP DP  RH WIND       PRES   REMARKS
DFW AIRPORT    CLOUDY    40  40 100 S6        30.03S FOG     WCI  36
FTW MEACHAM    CLOUDY    41  39  93 S6        30.01F FOG     WCI  37
DAL-EXECUTIVE  LGT RAIN  41  41 100 CALM      30.02S FOG
GRAND PRAIRIE  NOT AVBL
ADDISON        CLOUDY    43  41  93 S5        30.04F FOG
MESQUITE       NOT AVBL
LANCASTER      FOG       41  40  95 S3        30.05S VSB 3/4
$$

NORTH CENTRAL TEXAS

CITY           SKY/WX    TMP DP  RH WIND       PRES   REMARKS
SHRMAN/DENISON CLOUDY    42  42 100 S7        30.02S FOG     WCI  38
GAINESVILLE    CLOUDY    38  38  99 SE9       30.01F FOG     WCI  32
BRIDGEPORT     CLOUDY    40  40 100 CALM      30.00F
DENTON         CLOUDY    40  39  97 S5        30.01F FOG     WCI  37
WAXAHACHIE     FOG       40  40 100 S5        30.04F VSB 3/4 WCI  37
GRANBURY       CLOUDY    42  40  95 SE6       30.03F FOG     WCI  38
$$

WESTERN NORTH TEXAS

CITY           SKY/WX    TMP DP  RH WIND       PRES   REMARKS
WICHITA FALLS  CLOUDY    39  36  89 SW8       29.98R FOG     WCI  33
VERNON         CLOUDY    40  34  77 S7        29.96S WCI  35
BRECKENRIDGE   CLOUDY    41  40  99 S6        29.96S FOG     WCI  37
COMANCHE       CLOUDY    41  41 100 S7        29.99F FOG     WCI  36
$$

CENTRAL AND SOUTH CENTRAL TEXAS

CITY           SKY/WX    TMP DP  RH WIND       PRES   REMARKS
AUSTIN/BERGSTM FOG       42  42 100 N6        30.04S VSB 1/2 WCI  38
WACO           CLOUDY    40  40 100 N3        30.05F FOG
HILLSBORO      FOG       41  40  95 CALM      30.03F VSB 3/4
TEMPLE         CLOUDY    41  37  87 N3        30.03F
KILLEEN-GRAY   FOG       40  40 100 N3        30.02F VSB 1/2
FORT HOOD      CLOUDY    39  39 100 NW3       30.02F
GEORGETOWN     CLOUDY    43  39  87 NW6       30.04S WCI  39
LAGO VISTA     DRZL/FOG  42  41  95 CALM      30.02F VSB 1/4
SAN MARCOS     CLOUDY    43  41  93 NE3       30.03S VSB 3/4
NEW BRAUNFELS  FOG       45  45 100 NW6       30.02R VSB 1/2
RANDOLPH AFB   DRZL/FOG  45  44  98 N6        30.02R VSB 1
SAN ANTONIO    LGT RAIN  48  47  96 CALM      30.03R FOG
STINSON        LGT RAIN  47  45  93 CALM      30.02S FOG
PLEASANTON     NOT AVBL
LA GRANGE      FOG       47  47 100 NW3       30.01R VSB 1/2
GIDDINGS       FOG       44  44  99 N5        30.07R VSB 1/2
$$

EAST TEXAS

CITY           SKY/WX    TMP DP  RH WIND       PRES   REMARKS
PARIS          CLOUDY    37  36  93 SE9       30.05S VSB 3/4 WCI  31
CLARKSVILLE    NOT AVBL
TYLER          FOG       45  43  93 CALM      30.06R VSB 3/4
LONGVIEW       FOG       44  43  96 CALM      30.06S VSB 1/2
PALESTINE      FOG       47  47 100 CALM      30.07R VSB 1/4
NACOGDOCHES    CLOUDY    46  45  93 CALM      30.07R VSB 1/2
$$

TEXAS HILL COUNTRY AND EDWARDS PLATEAU

CITY           SKY/WX    TMP DP  RH WIND       PRES   REMARKS
LLANO          CLOUDY    41  41 100 CALM      30.06S FOG
HORSESHOE BAY  DRZL/FOG N/A N/A N/A CALM      30.03S VSB 1/2
KERRVILLE      DRIZZLE   44  43  97 CALM      30.01S
FREDERICKSBRG  CLOUDY    42  41  98 CALM      30.00F FOG
ROCKSPRINGS    NOT AVBL
HONDO          LGT RAIN  47  46  97 CALM      30.04S FOG
UVALDE         CLOUDY    47  47  99 E5        30.02F FOG
DEL RIO        CLOUDY    48  46  93 SE7       29.99R
$$

SOUTHEAST TEXAS

CITY           SKY/WX    TMP DP  RH WIND       PRES   REMARKS
COLLEGE STN    FOG       46  46 100 E3        30.03F VSB 1/4
CALDWELL       FOG       45  45 100 N3        30.07R VSB 1/4
CROCKETT       FOG       52  52 100 CALM      30.08R VSB 1/4
BRENHAM        FOG       48  48  99 CALM      30.04S VSB 1/4
HUNTSVILLE     CLOUDY    54  54 100 CALM      30.04R FOG
CONROE         FOG       55  54  96 SE3       30.04S VSB 1/4
HOUSTON BUSH   FOG       58  58 100 E6        30.03F VSB 1/8
HOUSTON HOBBY  FOG       58  58 100 SE6       30.02F VSB 1/2
PERLAND        FOG       59  59 100 SE6       30.04F VSB 1/2
WHARTON        FOG       53  53  99 CALM      30.03R VSB 1/4
$$

THE UPPER TEXAS COAST

CITY           SKY/WX    TMP DP  RH WIND       PRES   REMARKS
ORANGE         FOG       56  56 100 E5        30.08S VSB 1
PORT ARTHUR    FOG       58  57  97 E8        30.05F VSB 1
GALVESTON      FOG       58  58 100 E9        30.04F VSB 1/4
ANGLETON       FOG       60  60 100 E6        30.02F VSB 1/2
BAY CITY       FOG       64  64 100 SE8       30.01S VSB 1/4
$$

TEXAS COASTAL BEND, RIO GRANDE PLAINS DEEP SOUTH TEXAS

CITY           SKY/WX    TMP DP  RH WIND       PRES   REMARKS
VICTORIA       FOG       52  52 100 E5        30.01R VSB 1/4
BEEVILLE       FOG       50  50 100 CALM      30.01R VSB 1/2
ROCKPORT       FOG       57  56  96 CALM      30.00R VSB 1/4
PORT ARANSAS   FOG       57  57 100 N3        30.00R VSB 1/2
PORT LAVACA    DRZL/FOG  53  53 100 E6        30.01R VSB 1/4
CORPUS CHRISTI DRZL/FOG  54  54 100 CALM      30.01R VSB 1/2
KINGSVILLE NAS FOG       53  53 100 W7        30.02R VSB 1
COTULLA        CLOUDY    48  46  93 NW3       30.04R FOG
LAREDO         LGT RAIN  48  47  97 CALM      30.04S FOG
BROWNSVILLE    FOG       57  57 100 CALM      30.00S VSB 1/4
PORT ISABEL    FOG       57  57 100 CALM      29.99S VSB 1/4
HEBBRONVILLE   HVY RAIN N/A N/A N/A W5        30.02S
MCALLEN        FOG       54  53  97 W5        30.02R VSB 3/4
WESLACO        HVY RAIN  53  52  96 CALM      30.00S VSB 1/2
FALFURRIAS     CLOUDY    51  50  95 NW3       30.02R
EDINBURG       FOG       54  52  93 N5        30.02R VSB 1/2
$$


USA.gov is the U.S. government's official web portal to all federal, state and local government web resources and services.